Weather reports worldwide

Advertisment
Spadeadam, United Kingdom (3224): temperature & dewpoint: 13.11.2019 18:00:00 - 19.11.2019 18:00:00 (GMT)Spadeadam, United Kingdom (3224): temperature -20cm: 13.11.2019 18:00:00 - 19.11.2019 18:00:00 (GMT)Spadeadam, United Kingdom (3224): wind speed & gusts: 13.11.2019 18:00:00 - 19.11.2019 18:00:00 (GMT)Spadeadam, United Kingdom (3224): wind direction: 13.11.2019 18:00:00 - 19.11.2019 18:00:00 (GMT)Spadeadam, United Kingdom (3224): reduced air pressure: 13.11.2019 18:00:00 - 19.11.2019 18:00:00 (GMT)Spadeadam, United Kingdom (3224): visibility: 13.11.2019 18:00:00 - 19.11.2019 18:00:00 (GMT)Spadeadam, United Kingdom (3224): precipitation: 13.11.2019 18:00:00 - 19.11.2019 18:00:00 (GMT)
Date & Time tt [°C] td [°C] tt -20cm [°C] ff [km/h] ff [kn] fx [km/h] fx [kn] dd ppp [hPa] vv [km] rr [mm]
19.11.2019 18:00:00 -1,4 -2,2 - 9 5 - - NE 1013,1 40 0,0
19.11.2019 17:00:00 -1,2 -2,1 - 11 6 - - NE 1013,3 45 0,0
19.11.2019 16:00:00 -0,4 -1,5 - 11 6 - - ENE 1013,1 50 0,0
19.11.2019 15:00:00 0,4 -1,1 - 9 5 - - NE 1013,2 10 0,0
19.11.2019 14:00:00 0,9 -0,6 - 9 5 - - NE 1013,4 45 0,0
19.11.2019 13:00:00 0,5 -0,9 - 5 3 - - NE 1014,2 10 0,0
19.11.2019 12:00:00 0,0 -1,2 - 9 5 - - ENE 1014,2 10 0,0
19.11.2019 11:00:00 -0,8 -2,1 - 8 4 - - NE 1014,9 10 0,0
19.11.2019 10:00:00 -1,9 -3,3 - 9 5 - - ENE 1015,3 10 0,0
19.11.2019 09:00:00 -3,7 -5,3 3,0 5 3 - - NE 1015,8 50 0,0
19.11.2019 08:00:00 -3,1 -4,4 - 9 5 - - ENE 1015,7 50 0,0
19.11.2019 07:00:00 -2,5 -4,2 - 8 4 - - NE 1015,2 50 0,0
19.11.2019 06:00:00 -3,2 -4,8 - 4 2 - - NNW 1015,7 50 0,0
19.11.2019 05:00:00 -3,1 -4,4 - 4 2 - - ENE 1015,8 50 0,0
19.11.2019 04:00:00 -3,8 -4,7 - 0 0 - - N 1016,1 50 0,0
19.11.2019 03:00:00 -4,7 -5,7 - 4 2 - - E 1016,7 50 0,0
19.11.2019 02:00:00 -3,1 -4,4 - 4 2 - - NNE 1016,7 50 0,0
19.11.2019 01:00:00 -2,6 -3,3 - 5 3 - - NE 1016,8 50 0,0
19.11.2019 00:00:00 -3,4 -4,2 - 2 1 - - E 1017,3 50 0,0
18.11.2019 23:00:00 -3,2 -4,2 - 4 2 - - SE 1017,5 45 0,0
18.11.2019 22:00:00 -2,2 -2,6 - 4 2 - - ESE 1017,7 45 0,0
18.11.2019 21:00:00 -2,7 -3,2 - 0 0 - - N 1018,1 50 0,0
18.11.2019 20:00:00 -2,6 -3,0 - 2 1 - - WNW 1018,4 45 0,0
18.11.2019 19:00:00 -1,4 -1,7 - 5 3 - - SW 1018,2 6 0,0
18.11.2019 18:00:00 -1,5 -2,2 - 2 1 - - E 1018,1 50 0,0
18.11.2019 17:00:00 -0,2 -0,8 - 8 4 - - NW 1017,8 50 0,0
18.11.2019 16:00:00 0,5 -0,9 - 8 4 - - W 1017,6 40 0,0
18.11.2019 15:00:00 2,2 0,4 - 8 4 - - WSW 1017,6 10 0,0
18.11.2019 14:00:00 3,2 0,3 - 11 6 - - W 1017,8 40 0,0
18.11.2019 13:00:00 4,3 1,0 - 8 4 - - SSW 1017,8 40 0,0
18.11.2019 12:00:00 3,6 1,0 - 8 4 - - SSW 1018,2 50 0,0
18.11.2019 11:00:00 2,8 -0,3 - 4 2 - - WSW 1019,1 40 0,2
18.11.2019 10:00:00 1,0 -0,6 - 0 0 - - N 1019,3 35 0,0
18.11.2019 09:00:00 -0,7 -1,4 4,0 5 3 - - SSW 1019,3 50 0,0
18.11.2019 08:00:00 -1,7 -2,8 - 8 4 - - N 1019,5 45 0,0
18.11.2019 07:00:00 -2,0 -3,0 - 8 4 - - NW 1019,6 45 0,0
18.11.2019 06:00:00 -1,6 -2,3 - 13 7 - - NNW 1019,3 50 0,0
18.11.2019 05:00:00 -0,9 -1,8 - 4 2 - - NNW 1019,0 50 0,0
18.11.2019 04:00:00 -0,4 -1,1 - 5 3 - - WSW 1019,2 50 0,0
18.11.2019 03:00:00 0,0 -0,8 - 4 2 - - WSW 1019,0 45 0,0
18.11.2019 02:00:00 0,0 -0,9 - 11 6 - - N 1018,7 40 0,0
18.11.2019 01:00:00 1,4 0,3 - 13 7 - - N 1018,9 50 0,0
18.11.2019 00:00:00 1,9 1,3 - 5 3 - - N 1019,2 50 0,0
17.11.2019 23:00:00 0,3 -0,2 - 9 5 - - N 1019,2 40 0,0
17.11.2019 22:00:00 1,2 -0,1 - 15 8 - - N 1018,8 50 0,0
17.11.2019 21:00:00 1,1 0,8 - 16 9 - - NNE 1018,9 45 0,0
17.11.2019 20:00:00 0,2 -0,4 - 11 6 - - N 1019,0 45 0,0
17.11.2019 19:00:00 1,0 0,4 - 11 6 - - NNE 1018,7 45 0,0
17.11.2019 18:00:00 2,1 1,1 - 9 5 - - N 1018,2 50 0,0
17.11.2019 17:00:00 3,4 2,4 - 11 6 - - N 1017,5 40 0,0
17.11.2019 16:00:00 3,8 2,7 - 8 4 - - N 1016,9 50 0,0
17.11.2019 15:00:00 4,7 3,9 - 8 4 - - NNE 1016,1 50 0,0
17.11.2019 14:00:00 5,6 4,6 - 9 5 - - N 1015,4 35 0,0
17.11.2019 13:00:00 5,6 4,5 - 9 5 - - NNE 1015,4 35 0,0
17.11.2019 12:00:00 5,2 4,2 - 8 4 - - NE 1015,0 45 0,0
17.11.2019 11:00:00 4,7 4,1 - 8 4 - - NE 1014,6 50 0,0
17.11.2019 10:00:00 4,5 3,9 - 8 4 - - NNE 1014,1 50 0,0
17.11.2019 09:00:00 3,7 3,2 4,7 11 6 - - NNE 1013,3 45 0,0
17.11.2019 08:00:00 3,4 3,0 - 9 5 - - NNE 1012,6 50 0,2
17.11.2019 07:00:00 3,5 3,2 - 11 6 - - NNE 1011,8 50 0,0
17.11.2019 06:00:00 3,3 3,0 - 13 7 - - NNE 1011,1 50 0,0
17.11.2019 05:00:00 3,7 3,4 - 9 5 - - NNE 1010,5 30 0,4
17.11.2019 04:00:00 3,9 3,7 - 5 3 - - NNE 1010,1 27 0,4
17.11.2019 03:00:00 4,0 3,8 - 9 5 - - N 1009,7 22 0,2
17.11.2019 02:00:00 4,1 3,9 - 9 5 - - NNE 1009,5 23 0,0
17.11.2019 01:00:00 4,1 3,8 - 8 4 - - N 1009,2 30 0,4
17.11.2019 00:00:00 4,4 4,1 - 9 5 - - N 1008,9 21 1,2
16.11.2019 23:00:00 4,3 4,1 - 9 5 - - N 1008,4 22 0,2
16.11.2019 22:00:00 4,4 4,1 - 9 5 - - N 1008,2 45 0,4
16.11.2019 21:00:00 4,5 4,1 - 11 6 - - N 1008,0 28 0,0
16.11.2019 20:00:00 4,5 4,0 - 8 4 - - NNE 1007,8 50 0,0
16.11.2019 19:00:00 4,6 4,0 - 13 7 - - N 1007,6 50 0,0
16.11.2019 18:00:00 4,6 4,3 - 11 6 - - N 1007,6 50 0,0
16.11.2019 17:00:00 4,5 4,1 - 9 5 - - N 1007,3 50 0,0
16.11.2019 16:00:00 5,1 4,3 - 9 5 - - N 1007,1 50 0,0
16.11.2019 15:00:00 5,8 5,3 - 9 5 - - N 1007,0 15 0,0
16.11.2019 14:00:00 6,4 5,5 - 15 8 - - N 1006,9 50 0,0
16.11.2019 13:00:00 6,6 5,4 - 16 9 - - N 1007,1 50 0,0
16.11.2019 12:00:00 6,7 5,7 - 16 9 - - NNE 1007,3 50 0,0
16.11.2019 11:00:00 6,0 5,2 - 15 8 - - NNE 1007,6 50 0,0
16.11.2019 10:00:00 5,3 4,8 - 24 13 - - NNE 1008,0 50 0,0
16.11.2019 09:00:00 4,9 4,5 4,0 21 11 - - NNE 1008,2 6 0,0
16.11.2019 08:00:00 4,7 4,4 - 24 13 - - N 1008,3 10 0,2
16.11.2019 07:00:00 4,6 4,0 - 26 14 - - N 1008,3 11 0,0
16.11.2019 06:00:00 4,6 4,0 - 31 17 46 25 N 1008,4 21 0,0
16.11.2019 05:00:00 4,9 4,0 - 29 16 - - N 1008,3 35 0,0
16.11.2019 04:00:00 5,0 4,0 - 26 14 - - NNE 1008,5 26 0,0
16.11.2019 03:00:00 4,7 3,8 - 24 13 - - NNE 1009,0 21 0,0
16.11.2019 02:00:00 4,1 3,0 - 22 12 - - NNE 1009,5 35 0,0
16.11.2019 01:00:00 3,3 2,3 - 22 12 - - NNE 1009,9 29 0,0
16.11.2019 00:00:00 3,9 2,4 - 18 10 - - NNE 1010,9 30 0,0
15.11.2019 23:00:00 3,6 2,8 - 21 11 - - NNE 1011,5 20 0,0
15.11.2019 22:00:00 3,5 2,6 - 13 7 - - NE 1011,1 29 0,0
15.11.2019 21:00:00 3,9 2,9 - 18 10 - - NE 1011,4 28 0,2
15.11.2019 20:00:00 4,6 3,9 - 15 8 - - NE 1012,2 5 0,6
15.11.2019 19:00:00 4,5 3,5 - 24 13 - - NNE 1012,2 17 0,0
15.11.2019 18:00:00 4,5 3,1 - 15 8 - - NE 1012,5 40 0,0
15.11.2019 17:00:00 4,6 3,5 - 16 9 - - NE 1012,4 27 0,0
15.11.2019 16:00:00 5,2 4,0 - 13 7 - - NE 1012,3 35 0,2
15.11.2019 15:00:00 5,9 4,5 - 16 9 - - NE 1012,5 30 0,0
15.11.2019 14:00:00 6,8 5,0 - 18 10 - - NE 1012,4 23 0,0
15.11.2019 13:00:00 6,7 4,8 - 18 10 - - NNE 1012,6 50 0,0
15.11.2019 12:00:00 5,9 5,1 - 16 9 - - NNE 1013,2 10 0,0
15.11.2019 11:00:00 4,6 4,0 - 15 8 - - NNE 1013,3 10 0,2
15.11.2019 10:00:00 3,6 3,3 - 15 8 - - ENE 1013,7 10 0,4
15.11.2019 09:00:00 3,1 2,6 3,5 13 7 - - NE 1013,6 5 1,4
15.11.2019 08:00:00 4,0 2,9 - 26 14 - - NNE 1012,9 45 0,2
15.11.2019 07:00:00 3,8 2,8 - 16 9 50 27 NE 1012,3 15 0,2
15.11.2019 06:00:00 4,4 2,3 - 35 19 52 28 NNE 1011,1 50 0,0
15.11.2019 05:00:00 4,3 2,9 - 24 13 - - NNE 1011,1 30 0,0
15.11.2019 04:00:00 3,9 2,7 - 28 15 - - NNE 1010,9 40 0,0
15.11.2019 03:00:00 3,3 2,9 - 24 13 46 25 N 1010,9 45 0,0
15.11.2019 02:00:00 2,5 1,9 - 35 19 54 29 N 1010,9 45 0,0
15.11.2019 01:00:00 2,6 1,4 - 31 17 54 29 N 1010,7 45 0,0
15.11.2019 00:00:00 2,5 1,3 - 37 20 57 31 NNE 1010,3 21 0,0
14.11.2019 23:00:00 2,2 0,9 - 41 22 57 31 NNE 1010,0 40 0,0
14.11.2019 22:00:00 2,4 0,8 - 35 19 54 29 NNE 1010,2 45 0,0
14.11.2019 21:00:00 2,2 0,7 - 39 21 57 31 NNE 1009,9 30 0,0
14.11.2019 20:00:00 2,3 0,6 - 41 22 57 31 NNE 1009,6 45 0,0
14.11.2019 19:00:00 2,3 0,7 - 39 21 61 33 NNE 1009,4 50 0,0
14.11.2019 18:00:00 2,7 1,0 - 39 21 59 32 NNE 1008,9 35 0,0
14.11.2019 17:00:00 2,9 1,1 - 37 20 54 29 NNE 1007,9 30 0,0
14.11.2019 16:00:00 2,7 1,5 - 34 18 50 27 NNE 1007,3 10 0,0
14.11.2019 15:00:00 3,3 1,1 - 35 19 57 31 NNE 1006,4 45 0,0
14.11.2019 14:00:00 3,5 1,2 - 39 21 57 31 NNE 1006,0 50 0,0
14.11.2019 13:00:00 3,6 1,4 - 28 15 54 29 NNE 1006,2 50 0,0
14.11.2019 12:00:00 2,9 1,1 - 34 18 52 28 NNE 1005,8 10 0,0
14.11.2019 11:00:00 2,4 1,1 - 31 17 - - NNE 1005,3 40 0,2
14.11.2019 10:00:00 2,0 0,9 - 28 15 - - NNE 1005,4 45 0,0
14.11.2019 09:00:00 1,4 0,6 3,5 16 9 - - NNE 1004,6 50 0,0
14.11.2019 08:00:00 0,8 0,3 - 22 12 - - NNE 1003,7 40 0,0
14.11.2019 07:00:00 0,6 0,0 - 22 12 - - NNE 1002,9 45 0,0
14.11.2019 06:00:00 1,1 0,5 - 26 14 - - NNE 1001,9 50 0,0
14.11.2019 05:00:00 0,9 0,3 - 16 9 - - NNE 1001,0 50 0,0
14.11.2019 04:00:00 0,7 0,1 - 15 8 - - NNE 1000,1 50 0,0
14.11.2019 03:00:00 0,8 0,3 - 13 7 - - NE 999,3 50 0,0
14.11.2019 02:00:00 0,8 0,4 - 15 8 - - NE 998,6 50 0,0
14.11.2019 01:00:00 0,8 0,5 - 16 9 - - NE 998,1 50 0,0
14.11.2019 00:00:00 0,6 0,3 - 13 7 57 31 NE 997,5 12 0,0
13.11.2019 23:00:00 0,1 -0,4 - 15 8 - - NE 997,1 50 0,0
13.11.2019 22:00:00 0,6 -0,1 - 13 7 - - ENE 996,6 40 0,0
13.11.2019 21:00:00 -0,4 -0,7 - 9 5 - - NE 996,4 27 0,0
13.11.2019 20:00:00 -0,1 -0,4 - 9 5 - - ENE 996,1 19 0,0
13.11.2019 19:00:00 -0,1 -0,5 - 15 8 - - ENE 996,0 19 0,0
13.11.2019 18:00:00 1,0 0,5 - 15 8 - - ENE 995,4 35 0,0

tt = temperature
td = dewpoint
tt -20cm = temperature -20cm
ff = wind speed
fx = gusts
dd = wind direction
ppp = reduced air pressure
vv = visibility
rr = precipitation

Next stations